Temp
81 84 85 85 84 83 81 81 80 80 81 81 82 83 83 84 85 86 84 84 84 83 82 84 85 85 86 85 84 85 84 87 87 87 89 88 88 88 89 91 91 90 90
79 81 84 85 84 82 81 80 80 80 80 83 83 84 84 85 86 85 84 84 84 83 83 82 84 84 86 84 83 84 86 87 87 86 85 83 88 92 92 91 90 89 91
81 77 82 83 84 82 81 80 80 80 81 82 82 81 82 83 83 84 85 85 85 84 83 83 84 84 85 86 83 84 83 85 85 82 84 82 81 84 90 89 92 88 90
83 80 82 83 84 83 83 82 81 80 81 81 81 80 83 83 86 85 86 86 85 85 84 84 84 83 86 83 85 86 86 84 85 85 87 83 83 82 83 91 91 91 92
84 83 82 84 86 85 84 83 81 80 81 80 81 82 82 86 87 86 83 84 83 85 86 83 83 83 85 84 84 83 83 87 87 87 87 84 86 83 83 83 87 92 94
84 85 86 86 85 86 85 83 80 79 80 80 81 80 81 83 84 84 84 85 86 87 85 85 84 83 84 83 85 84 83 84 85 87 87 87 85 86 85 84 85 85 91
83 84 83 84 84 84 83 83 80 79 80 80 81 81 81 82 82 83 85 84 85 86 85 84 82 81 83 84 84 83 83 84 85 83 88 88 88 87 86 86 86 86 90
85 85 84 84 83 83 83 82 81 79 80 80 80 81 81 85 86 84 87 86 87 87 86 85 85 84 84 84 83 85 86 85 85 83 82 88 88 88 88 86 85 85 88
84 85 85 85 84 83 83 82 81 80 81 82 81 80 81 81 84 84 84 87 85 88 86 86 85 85 84 84 84 86 81 82 84 85 84 86 89 88 89 88 87 85 82
78 84 86 85 85 86 85 84 83 81 82 83 83 83 82 82 83 83 83 84 86 85 86 85 86 85 85 84 83 84 84 83 86 87 83 84 88 87 88 88 88 86 85
77 81 85 87 86 86 86 85 84 82 82 82 83 83 83 83 82 83 83 84 85 85 84 84 85 85 85 84 83 83 85 83 83 84 83 83 84 87 88 88 88 87 86
70 76 79 83 85 83 85 85 85 84 83 82 82 79 82 83 83 81 83 84 83 85 85 85 84 85 85 85 83 83 85 82 83 84 83 83 86 83 83 86 83 85 85
65 66 69 70 75 81 84 86 82 86 87 82 81 77 78 80 83 82 83 83 83 84 86 85 84 84 85 84 84 84 84 85 85 85 84 84 84 82 86 84 86 87 86
62 62 63 65 66 70 74 79 82 86 87 87 84 79 77 77 82 83 83 83 82 83 84 84 84 85 86 85 86 85 84 85 85 85 85 85 85 83 84 85 84 85 84
61 62 61 62 64 66 68 73 77 78 81 83 84 83 82 80 78 80 83 83 82 83 83 83 84 85 86 89 85 85 85 84 84 85 85 86 84 77 79 87 85 84 84
61 63 63 63 63 64 65 67 69 73 74 76 81 83 83 82 81 81 81 81 81 81 82 82 83 84 87 77 72 80 86 85 84 84 85 85 78 76 70 69 71 77 82
61 61 62 63 63 63 64 64 65 70 74 75 77 80 81 80 80 81 81 80 80 81 80 81 82 82 84 70 68 70 87 86 85 84 85 87 90 80 86 72 68 68 67
60 61 63 65 66 67 65 64 65 67 72 76 76 78 79 79 81 80 80 79 81 80 80 80 81 81 83 69 66 68 83 86 86 86 86 85 86 86 85 86 86 86 86
61 62 64 65 66 68 69 66 64 65 65 68 71 73 75 79 80 79 79 80 80 80 80 81 80 80 81 66 65 68 83 85 84 86 86 86 85 76 67 83 84 84 85
61 61 63 65 66 67 69 68 68 68 67 64 65 69 73 73 77 79 79 80 80 81 83 82 82 76 80 67 62 67 83 83 85 84 84 69 80 69 63 79 83 82 84
60 60 62 62 63 65 67 65 67 67 67 68 66 65 69 69 70 75 78 79 79 79 80 80 81 81 80 79 61 60 80 84 85 85 87 87 65 62 59 63 83 82 84
58 60 60 61 63 64 65 65 64 67 66 66 66 66 66 68 70 69 69 72 74 74 76 77 80 84 82 67 63 59 60 73 83 84 88 86 63 58 58 61 67 62 65
58 59 59 59 61 62 63 62 65 67 65 62 61 65 65 66 67 66 69 74 76 78 78 79 78 81 86 85 61 58 58 60 77 85 80 68 58 57 61 58 61 59 79
57 58 58 57 58 61 61 63 65 66 64 62 60 62 64 64 67 67 68 67 70 78 79 77 80 82 83 85 86 80 71 61 67 73 80 76 71 68 75 75 68 78 82
56 57 56 57 57 59 60 63 65 65 63 63 63 63 64 65 66 68 68 71 72 67 73 73 76 79 81 84 75 77 84 77 73 75 81 82 81 81 80 81 83 83 83
52 53 54 54 55 58 60 62 65 62 61 61 63 64 63 61 65 62 67 59 54 52 51 49 55 72 65 58 54 53 52 53 54 72 79 80 82 80 77 77 78 80 77
MSLP
1014.38 1014.95 1015.56 1016.18 1016.78 1017.51 1018.14 1018.54 1018.99 1019.39 1019.83 1019.99 1020.07 1020.27 1020.33 1020.64 1020.80 1020.93 1021.27 1021.61 1021.77 1022.05 1022.23 1022.26 1022.34 1022.47 1022.52 1022.64 1022.78 1022.92 1022.98 1022.95 1023.18 1022.93 1022.63 1022.51 1022.52 1022.46 1022.36 1022.39 1022.41 1022.52 1022.73
1014.12 1014.69 1015.14 1015.93 1016.42 1016.85 1017.70 1018.43 1018.85 1019.21 1019.67 1019.87 1019.99 1020.07 1020.22 1020.39 1020.56 1020.90 1021.20 1021.45 1021.69 1022.02 1022.19 1022.32 1022.26 1022.42 1022.44 1022.63 1022.86 1022.95 1022.89 1023.04 1023.27 1022.99 1022.87 1022.20 1022.17 1022.07 1022.08 1022.09 1022.17 1022.24 1022.31
1013.43 1014.21 1014.75 1015.33 1016.01 1016.70 1017.38 1017.88 1018.39 1019.03 1019.41 1019.82 1020.16 1020.33 1020.39 1020.49 1020.63 1020.89 1021.07 1021.13 1021.53 1021.88 1022.14 1022.39 1022.41 1022.49 1022.39 1022.48 1022.83 1022.93 1023.04 1022.87 1023.43 1023.53 1023.15 1022.46 1022.23 1022.20 1022.00 1022.02 1022.04 1022.18 1022.12
1012.90 1013.53 1014.08 1014.77 1015.50 1016.04 1016.73 1017.67 1018.09 1018.64 1019.33 1019.71 1019.98 1020.19 1019.97 1019.91 1019.98 1020.36 1020.75 1020.92 1021.33 1021.59 1021.96 1022.19 1022.37 1022.51 1022.44 1022.63 1022.79 1022.75 1022.95 1023.07 1022.94 1023.37 1023.39 1023.50 1023.34 1022.51 1021.69 1021.69 1021.85 1021.97 1021.79
1012.09 1012.51 1013.45 1014.04 1014.58 1015.49 1016.21 1016.99 1017.77 1018.27 1018.80 1019.38 1019.60 1020.01 1020.05 1019.83 1020.04 1020.36 1020.77 1020.99 1021.25 1021.44 1021.69 1022.04 1022.24 1022.34 1022.37 1022.58 1022.72 1022.94 1023.02 1023.05 1022.91 1022.94 1023.13 1023.28 1023.25 1023.23 1022.63 1021.70 1021.65 1021.59 1021.62
1011.47 1012.07 1012.67 1013.37 1014.15 1015.05 1015.89 1016.72 1017.48 1018.00 1018.42 1018.97 1019.39 1019.78 1019.87 1019.99 1019.98 1020.27 1020.52 1020.82 1021.09 1021.12 1021.58 1021.81 1022.02 1022.27 1022.32 1022.47 1022.61 1022.77 1022.99 1023.07 1023.15 1023.05 1023.09 1022.99 1022.97 1022.74 1022.63 1022.24 1021.99 1021.79 1021.49
1011.07 1011.57 1012.12 1012.86 1013.68 1014.60 1015.43 1016.35 1017.08 1017.73 1018.33 1018.62 1018.99 1019.37 1019.70 1019.91 1019.97 1020.13 1020.24 1020.47 1020.75 1020.93 1021.23 1021.50 1021.71 1022.10 1022.30 1022.45 1022.60 1022.74 1022.84 1022.87 1022.93 1023.20 1023.04 1023.17 1023.13 1023.16 1022.96 1022.68 1022.21 1021.91 1021.65
1010.75 1011.06 1011.63 1012.34 1013.26 1014.06 1014.89 1015.64 1016.35 1017.00 1017.73 1018.33 1018.48 1018.97 1019.39 1019.61 1019.77 1019.91 1019.91 1020.19 1020.27 1020.43 1020.73 1021.12 1021.38 1021.75 1022.03 1022.13 1022.40 1022.37 1022.38 1022.54 1022.88 1023.17 1023.20 1023.13 1023.15 1023.18 1023.06 1022.84 1022.57 1021.91 1021.71
1010.48 1010.61 1011.19 1011.90 1012.65 1013.42 1014.29 1015.03 1015.72 1016.18 1016.97 1017.41 1018.07 1018.45 1018.88 1019.30 1019.41 1019.71 1019.93 1019.90 1020.11 1020.12 1020.41 1020.71 1021.02 1021.31 1021.66 1021.95 1022.06 1022.21 1022.37 1022.58 1022.79 1022.91 1023.07 1023.05 1022.97 1023.09 1023.04 1023.01 1022.90 1022.55 1021.76
1011.17 1010.72 1010.89 1011.65 1012.07 1012.88 1013.62 1014.43 1015.10 1015.43 1015.75 1016.58 1017.29 1017.98 1018.42 1018.87 1019.13 1019.35 1019.57 1019.67 1019.71 1019.91 1020.05 1020.37 1020.63 1020.89 1021.28 1021.60 1021.82 1022.01 1022.03 1022.34 1022.44 1022.58 1022.83 1022.92 1022.81 1022.91 1022.92 1022.84 1022.82 1022.77 1022.32
1011.66 1011.31 1011.31 1011.69 1012.10 1012.73 1013.37 1013.93 1014.56 1015.14 1015.69 1016.19 1016.57 1017.16 1017.60 1018.19 1018.91 1019.03 1019.07 1019.31 1019.44 1019.55 1019.79 1020.07 1020.29 1020.57 1020.93 1021.14 1021.60 1021.78 1021.89 1022.06 1022.15 1022.37 1022.53 1022.60 1022.75 1022.58 1022.61 1022.66 1022.60 1022.50 1022.43
1013.85 1013.11 1012.82 1012.51 1012.41 1012.81 1013.23 1013.63 1014.13 1014.55 1014.87 1015.53 1016.25 1016.62 1017.17 1017.48 1018.13 1018.51 1018.62 1018.90 1019.08 1019.13 1019.37 1019.66 1020.03 1020.17 1020.44 1020.83 1021.15 1021.37 1021.47 1021.68 1021.74 1021.87 1022.12 1022.21 1022.30 1022.50 1022.50 1022.37 1022.43 1022.23 1022.22
1015.65 1015.27 1014.93 1014.64 1014.25 1013.73 1013.52 1013.62 1014.16 1014.12 1014.53 1015.29 1015.85 1016.34 1016.76 1017.20 1017.33 1017.82 1018.03 1018.33 1018.62 1018.85 1019.01 1019.25 1019.60 1019.90 1020.08 1020.35 1020.69 1020.83 1020.97 1021.19 1021.27 1021.40 1021.59 1021.68 1021.87 1022.00 1021.89 1022.10 1022.00 1021.88 1021.94
1017.33 1016.89 1016.47 1016.23 1015.91 1015.54 1015.13 1014.60 1014.37 1014.19 1014.27 1014.51 1015.04 1015.64 1015.98 1016.32 1016.65 1016.98 1017.36 1017.74 1018.02 1018.31 1018.60 1018.81 1019.08 1019.36 1019.62 1019.77 1020.02 1020.33 1020.43 1020.59 1020.71 1020.84 1020.98 1021.07 1021.22 1021.45 1021.63 1021.77 1021.84 1021.74 1021.71
1018.39 1018.20 1017.97 1017.67 1017.24 1016.79 1016.37 1015.87 1015.36 1014.93 1014.50 1014.36 1014.47 1014.51 1014.91 1015.43 1015.85 1016.31 1016.58 1016.96 1017.43 1017.69 1018.05 1018.36 1018.57 1018.85 1019.08 1019.13 1019.38 1019.61 1019.81 1019.90 1020.03 1020.22 1020.35 1020.40 1020.21 1020.61 1020.81 1021.29 1021.32 1021.41 1021.39
1019.55 1019.29 1018.91 1018.49 1018.24 1017.96 1017.44 1016.90 1016.15 1015.51 1015.13 1014.59 1014.22 1014.12 1014.53 1014.93 1015.23 1015.58 1015.78 1016.14 1016.51 1016.99 1017.33 1017.58 1017.89 1018.12 1018.21 1018.33 1018.65 1018.89 1019.01 1019.19 1019.33 1019.39 1019.57 1019.78 1020.20 1020.64 1020.60 1020.80 1020.85 1021.23 1021.19
1020.42 1020.09 1019.75 1019.45 1019.08 1018.71 1018.25 1017.57 1016.77 1015.67 1015.16 1014.69 1014.17 1014.16 1014.24 1014.45 1014.68 1014.98 1015.35 1015.48 1015.65 1015.93 1016.36 1016.68 1017.08 1017.25 1017.49 1017.73 1018.02 1018.37 1018.36 1018.32 1018.42 1018.57 1018.75 1018.96 1019.09 1019.61 1019.98 1020.28 1020.35 1020.57 1020.50
1021.15 1020.87 1020.45 1020.00 1019.49 1019.00 1018.55 1017.97 1017.05 1016.28 1015.48 1014.67 1014.50 1014.23 1014.13 1014.14 1014.23 1014.50 1014.67 1014.87 1015.03 1015.25 1015.35 1015.54 1015.97 1016.32 1016.46 1016.76 1017.23 1017.63 1017.98 1017.75 1017.57 1017.62 1017.84 1018.18 1018.29 1018.61 1018.97 1019.18 1019.24 1019.29 1019.21
1021.61 1021.47 1021.09 1020.57 1019.94 1019.26 1018.77 1018.29 1017.58 1016.95 1016.52 1015.93 1015.45 1014.81 1014.37 1013.91 1013.85 1013.79 1013.92 1014.18 1014.50 1014.59 1014.66 1014.71 1014.88 1015.22 1015.37 1015.67 1016.05 1016.76 1017.10 1016.81 1016.65 1016.70 1016.85 1017.15 1017.49 1017.69 1018.01 1018.31 1018.17 1018.10 1017.72
1021.83 1021.53 1021.31 1020.82 1020.24 1019.63 1019.12 1018.53 1017.91 1017.40 1016.89 1016.63 1016.47 1015.79 1015.09 1014.37 1013.68 1013.33 1013.33 1013.53 1013.80 1013.77 1013.78 1013.79 1013.88 1014.12 1014.33 1014.70 1015.12 1015.67 1015.98 1015.74 1015.63 1015.57 1015.79 1016.08 1016.31 1016.68 1017.08 1017.53 1017.40 1017.07 1016.65
1021.95 1021.73 1021.14 1020.83 1020.54 1020.09 1019.45 1018.71 1018.14 1017.79 1017.64 1017.23 1016.74 1016.23 1015.53 1014.78 1014.03 1013.50 1013.13 1013.01 1013.09 1013.13 1012.98 1012.91 1012.96 1013.07 1013.22 1013.53 1013.93 1014.50 1014.90 1014.53 1014.45 1014.32 1014.22 1014.57 1015.01 1015.61 1015.99 1016.30 1016.39 1015.98 1016.01
1021.94 1021.83 1021.19 1020.50 1020.41 1020.22 1019.70 1018.94 1018.34 1017.98 1017.79 1017.46 1016.96 1016.41 1016.11 1015.32 1013.90 1014.02 1013.73 1013.33 1012.85 1012.71 1012.47 1012.36 1012.12 1011.93 1012.14 1012.43 1012.85 1013.22 1013.62 1013.60 1013.57 1013.23 1013.14 1013.42 1013.91 1014.33 1014.83 1015.33 1015.26 1015.35 1015.53
1021.79 1021.78 1021.42 1020.84 1020.24 1020.07 1019.78 1018.99 1018.33 1018.09 1017.91 1017.57 1017.00 1016.26 1015.65 1015.04 1014.89 1014.43 1013.89 1013.12 1012.89 1012.31 1011.78 1011.51 1011.38 1010.94 1010.83 1011.15 1011.65 1012.09 1012.25 1012.81 1013.06 1012.58 1012.29 1012.55 1013.03 1013.46 1013.73 1013.90 1014.42 1014.79 1015.13
1021.51 1021.42 1021.23 1020.80 1020.19 1019.85 1019.49 1019.01 1018.33 1018.12 1017.90 1017.60 1017.23 1016.55 1015.77 1015.09 1014.77 1014.40 1014.11 1013.47 1013.08 1011.88 1011.18 1011.07 1010.64 1010.39 1010.15 1010.01 1010.26 1010.95 1011.71 1012.01 1012.38 1012.11 1011.89 1012.00 1012.45 1012.78 1012.87 1013.07 1013.66 1013.90 1013.62
1021.41 1021.17 1020.86 1020.51 1020.13 1019.70 1019.09 1018.62 1018.06 1017.85 1017.75 1017.44 1017.23 1016.87 1016.36 1015.73 1015.06 1014.53 1014.45 1013.54 1012.62 1012.38 1011.67 1011.12 1010.72 1010.10 1009.40 1009.03 1009.36 1009.62 1009.93 1010.80 1010.99 1011.32 1011.34 1010.98 1011.06 1011.27 1011.41 1011.65 1011.76 1012.03 1012.29
1021.43 1021.13 1020.87 1020.45 1020.07 1019.51 1018.72 1018.16 1017.62 1017.85 1017.63 1017.41 1017.15 1016.79 1016.58 1016.13 1015.33 1014.96 1013.77 1013.09 1012.24 1011.41 1011.56 1011.19 1011.21 1010.17 1009.27 1009.09 1009.10 1009.28 1009.76 1010.11 1010.70 1011.23 1010.26 1009.62 1009.49 1009.77 1010.13 1010.40 1010.65 1010.87 1011.06
Wind_Speed
17 17 16 15 14 13 13 14 13 12 9 8 8 5 6 5 5 4 5 4 3 4 4 3 3 3 2 2 3 3 3 2 1 1 2 3 5 5 4 4 4 4 5
17 17 17 16 17 17 15 14 13 13 11 8 7 3 4 4 5 4 4 5 5 4 4 4 3 3 3 2 3 2 2 2 2 1 2 3 2 0 2 3 4 5 5
19 16 17 19 18 16 16 16 16 13 12 10 6 2 4 3 4 5 5 6 5 5 4 5 3 3 2 3 4 3 3 3 2 1 3 2 4 4 1 0 2 3 3
20 17 19 19 19 19 17 16 15 15 12 12 9 8 7 6 5 6 6 5 6 5 5 5 5 4 2 3 3 3 1 2 3 2 1 2 3 4 4 1 1 2 3
22 22 20 21 22 19 17 17 16 15 13 13 11 10 9 6 4 4 6 5 5 5 6 6 5 5 4 4 4 4 3 1 2 2 2 1 2 2 3 3 3 0 1
22 21 20 20 18 17 16 15 15 15 14 14 14 13 12 9 6 6 6 6 5 5 6 6 5 4 3 4 4 3 4 2 1 2 1 1 2 2 2 2 2 4 2
20 20 21 19 17 18 17 15 15 16 15 15 15 15 13 11 10 9 7 7 6 5 7 7 6 6 6 5 4 4 4 4 2 3 1 1 1 1 2 2 3 3 2
19 19 20 20 18 18 18 18 18 16 16 16 15 13 13 9 9 10 8 7 7 7 7 8 7 6 5 5 4 4 5 4 3 4 3 1 1 1 1 3 4 3 2
17 20 19 19 19 19 19 18 18 18 17 19 14 14 13 13 11 10 9 7 7 6 8 9 9 8 7 7 6 5 5 4 4 4 4 4 2 2 1 1 2 3 5
10 15 17 18 17 19 18 19 18 18 19 18 16 14 14 14 12 10 11 10 8 8 8 9 9 8 9 8 7 6 6 6 5 5 5 5 4 4 3 3 2 2 3
1 8 11 14 15 15 16 17 17 16 16 17 15 15 14 14 13 12 12 11 9 9 9 9 9 9 9 9 9 8 7 8 7 6 6 6 5 5 4 4 4 4 3
17 14 7 5 11 13 12 15 15 16 16 13 14 13 12 13 14 14 14 12 12 10 10 8 9 9 9 9 10 10 9 10 9 8 7 7 6 6 5 5 5 5 4
19 17 16 14 11 3 10 11 12 14 14 12 13 10 11 12 16 15 14 13 13 13 11 10 10 10 10 11 11 11 10 10 10 9 9 8 8 7 6 6 5 5 5
18 16 16 14 14 12 10 5 7 11 12 14 15 13 13 13 15 14 14 14 13 13 13 13 12 12 11 12 11 11 11 11 11 11 11 10 10 9 8 7 7 7 7
18 17 16 14 13 13 13 10 8 6 11 13 15 17 16 15 13 13 14 14 14 14 14 14 14 13 12 10 12 12 12 11 11 12 12 12 12 11 10 7 7 7 8
16 17 17 16 16 14 14 13 12 10 8 11 15 14 13 13 14 14 15 14 15 14 14 15 15 15 13 13 14 13 12 12 12 12 13 13 11 12 13 13 13 10 9
15 16 16 15 14 14 13 13 12 11 9 9 11 14 13 14 14 15 14 14 14 14 15 15 15 16 16 12 15 17 14 13 13 13 12 12 11 12 12 13 14 13 14
14 14 14 15 15 14 12 13 12 12 12 5 4 9 12 14 14 14 15 14 13 14 14 15 15 15 14 14 16 17 18 14 15 15 15 14 14 13 13 12 12 12 12
12 12 12 14 13 14 16 14 12 10 10 12 10 8 10 13 14 14 14 14 13 13 14 14 15 16 16 15 18 15 16 17 17 15 16 15 15 14 16 14 14 13 13
13 14 15 14 13 14 15 15 13 13 12 11 13 14 9 8 9 12 13 13 13 14 12 14 15 16 17 14 17 17 14 15 14 15 16 16 19 14 15 15 14 14 14
15 16 15 13 13 14 14 14 14 12 12 13 12 12 13 8 7 8 8 12 13 13 13 14 14 15 16 16 17 19 15 14 14 14 13 14 20 20 16 19 15 15 13
14 15 14 16 15 14 13 13 13 13 13 13 13 11 12 10 8 7 6 8 7 11 11 13 13 13 15 16 15 19 23 17 15 15 13 13 14 19 19 16 18 15 11
13 13 13 16 17 15 13 14 13 12 11 12 13 14 13 12 8 8 10 7 10 11 11 11 11 12 12 13 18 18 21 23 16 15 14 12 12 16 16 18 15 14 11
16 15 15 16 18 15 15 15 14 11 10 11 12 12 13 12 12 8 8 7 10 10 10 9 12 12 12 12 12 11 11 18 16 19 15 13 11 12 12 11 12 12 13
16 15 15 15 17 17 17 16 15 10 9 10 11 11 10 12 12 10 9 10 9 9 10 7 8 11 13 14 12 12 10 9 13 12 13 13 13 13 11 12 13 12 12
13 14 15 14 14 17 17 15 14 8 8 9 9 9 10 10 9 10 12 12 16 14 19 17 13 12 16 13 11 13 11 12 9 8 12 13 13 13 10 10 11 13 13
Wind_Direction
197 201 198 186 182 187 190 189 191 186 187 187 184 191 207 203 214 210 189 185 172 167 200 206 212 199 210 123 122 130 159 110 75 315 315 279 259 262 266 267 269 273 270
192 199 194 186 188 189 194 188 196 189 195 192 187 193 194 205 217 200 196 188 194 180 196 210 218 210 165 170 168 159 132 115 142 11 300 357 132 342 277 275 271 284 289
197 193 192 192 196 191 196 194 193 197 194 201 187 145 144 139 175 193 205 193 195 186 186 185 210 208 206 165 185 177 198 167 154 43 345 331 19 333 74 76 301 300 283
202 192 195 196 196 202 197 199 194 195 198 190 200 203 204 187 187 187 192 187 187 186 184 192 202 195 199 164 183 192 177 207 149 170 235 310 332 344 347 91 357 290 278
202 199 196 199 199 201 200 197 198 197 195 195 201 202 222 210 184 177 177 188 187 188 188 199 194 197 215 185 191 171 178 188 182 172 163 213 251 240 307 354 25 166 355
203 204 201 199 202 200 202 201 199 204 195 197 200 205 215 208 195 189 191 198 202 191 192 187 183 183 207 208 206 198 191 203 180 187 189 321 319 360 337 335 7 344 5
202 199 201 200 202 199 197 199 198 204 205 200 203 206 216 210 203 192 199 186 196 203 197 197 191 181 202 208 210 202 208 206 212 197 228 161 345 358 347 335 18 339 9
205 205 201 197 198 199 197 198 198 202 200 207 205 207 211 217 219 209 200 207 208 204 196 197 206 188 194 199 197 215 222 202 215 218 232 245 225 237 353 4 341 347 7
212 208 199 198 197 199 201 198 200 200 203 205 207 207 209 218 222 220 214 207 213 212 201 201 201 199 193 205 197 228 218 215 210 217 223 248 248 242 235 293 320 333 337
250 214 209 201 196 199 201 203 206 201 200 204 205 213 213 216 220 214 218 215 212 216 204 208 206 201 197 202 202 214 218 221 226 232 223 236 242 247 236 250 247 237 301
182 212 206 208 200 199 201 206 208 209 210 208 208 208 209 212 223 223 217 218 213 208 211 213 211 207 204 207 209 223 218 214 219 219 224 233 226 246 243 232 237 246 252
40 39 21 213 188 200 204 210 212 209 212 210 210 209 216 208 214 220 220 217 221 215 213 210 215 215 209 208 212 216 217 217 220 224 222 231 220 225 231 238 247 254 246
34 35 37 37 26 289 225 215 208 222 217 208 209 202 209 214 218 224 221 215 221 223 222 216 213 216 217 215 218 224 228 225 227 227 226 228 224 231 234 233 242 246 251
31 27 26 23 20 24 27 351 252 235 225 217 216 209 203 208 222 225 221 221 219 222 225 224 221 221 219 214 215 220 225 231 231 228 228 229 225 230 232 234 240 250 259
25 23 19 15 12 12 8 3 360 325 257 226 224 222 217 211 214 217 221 221 220 224 227 231 228 228 229 224 218 219 221 225 230 230 229 230 232 224 231 244 242 255 250
18 12 11 12 10 359 358 350 343 328 307 259 242 238 230 225 220 220 219 215 218 223 224 227 231 234 233 223 207 216 219 223 227 230 229 235 220 231 225 223 237 253 254
7 3 2 358 356 352 346 343 328 312 280 260 252 250 243 233 227 227 227 223 221 218 220 228 231 232 234 222 208 211 229 226 225 228 231 232 232 221 236 218 225 236 233
359 353 349 347 345 346 351 340 340 356 345 322 296 270 252 246 240 234 233 231 228 225 221 224 227 231 233 216 209 207 229 237 234 233 231 232 237 229 227 234 239 241 244
344 343 338 336 333 339 347 347 344 349 355 353 339 340 325 254 245 242 241 239 236 232 231 231 226 228 236 213 211 203 231 237 237 236 235 233 236 231 209 234 245 249 252
336 335 333 328 334 337 338 337 345 341 350 346 334 321 313 304 285 252 246 244 237 239 237 238 232 229 238 220 212 204 230 238 238 236 237 217 233 218 199 219 239 247 250
324 329 326 323 330 330 330 328 332 338 337 332 329 327 320 316 307 302 266 240 241 247 243 241 240 238 231 235 205 202 223 232 233 240 238 236 207 222 204 206 233 239 251
321 322 317 316 321 324 321 318 319 327 327 327 325 326 319 313 335 304 292 296 258 241 242 247 248 242 241 229 215 202 210 222 232 239 240 241 201 207 209 207 231 232 235
314 313 309 308 309 315 315 307 309 316 320 323 321 323 325 323 307 310 294 281 256 259 259 247 245 250 248 240 213 209 207 219 231 239 238 239 204 206 217 219 222 224 238
312 308 303 299 300 306 306 300 300 300 305 313 316 316 319 321 314 309 295 281 277 267 259 259 255 252 248 245 242 217 216 224 222 239 241 241 238 227 237 223 212 228 231
309 304 303 300 298 299 295 293 293 283 286 303 308 306 301 307 304 295 285 276 263 268 292 283 277 256 249 245 235 234 220 211 222 223 235 238 231 234 229 236 235 226 226
320 311 312 314 315 301 292 287 284 279 280 291 294 302 300 291 290 291 288 251 251 268 272 256 247 277 266 277 226 218 229 227 207 217 236 234 233 230 221 223 228 230 232